Location: Estes Park
(40.3770°N, 105.5210°W)
Time: 20:35:29
(UTC-06:00)

ISS - Pass Details

Date: 10 October 2017
Orbit: 401 x 408 km, 51.6° (Epoch: 22 October)

Event Time Altitude Azimuth Distance (km) Brightness Sun altitude
Rises 20:50:18 0° 306° (NW) 2,322 1.1 -27.5°
Reaches altitude 10° 20:52:23 10° 307° (NW) 1,460 -0.2 -27.9°
Enters shadow 20:53:17 17° 307° (NW) 1,097 -1.0 -28.0°
